Flag for Canada Weather past 2 weeks in Happy Valley-Goose Bay, Newfoundland and Labrador, Canada

Now
59 °F

Overcast.


Feels Like: 58 °F
Forecast: 61 / 72 °F
Wind: 8 mph from East

Location: Goose

Current Time: Jul 31, 2015 at 4:45:19 AM

Latest Report: Jul 31, 2015 at 4:00 AM


Visibility: 15 mi

Pressure: 29.72 "Hg

Humidity: 94%

Dew point: 57 °F

Location of Happy Valley-Goose BayLocation

Historic Weather in Happy Valley-Goose Bay — Graph

°F

Happy Valley-Goose Bay temperature yesterday

Maximum temperature yesterday: 73 °F (at 4:00 PM)
Minimum temperature yesterday: 57 °F (at 5:00 AM)
Average temperature yesterday: 64 °F

Past Weeks' High & Low Weather Summary

 TemperatureHumidityPressure
High77 °F (Jul 26, 4:00 PM)100% (Jul 24, 6:00 AM)30.18 "Hg (Jul 24, 6:00 AM)
Low39 °F (Jul 25, 4:48 AM)25% (Jul 26, 7:00 PM)29.72 "Hg (Jul 16, 3:00 AM)
Average57 °F71%29.95 "Hg
* Reported Jul 16 3:00 AM — Jul 31 3:00 AM, Happy Valley-Goose Bay, Weather by CustomWeather, © 2015

Note: Actual official high and low records may vary slightly from our data, if they occured in-between our weather recording intervals... More about our weather records

Advertising

Happy Valley-Goose Bay weather history for previous 24 hours

 ConditionsComfort  
Time TempWeatherWind HumidityBarometerVisibility
3:00 AM
Fri, Jul 31
59 °FOvercast.3 mph94%29.72 "Hg15 mi
2:00 AM59 °FOvercast.3 mph94%29.73 "Hg15 mi
1:00 AM61 °FOvercast.5 mph88%29.73 "Hg15 mi
12:00 AM61 °FOvercast.5 mph94%29.73 "Hg15 mi
11:00 PM
Thu, Jul 30
63 °FPassing clouds.6 mph88%29.74 "Hg15 mi
10:00 PM64 °FPassing clouds.10 mph83%29.74 "Hg15 mi
9:00 PM66 °FPassing clouds.10 mph78%29.74 "Hg15 mi
8:00 PM68 °FPassing clouds.12 mph73%29.73 "Hg15 mi
7:00 PM70 °FPassing clouds.15 mph69%29.72 "Hg15 mi
6:00 PM72 °FPassing clouds.16 mph65%29.73 "Hg15 mi
5:00 PM73 °FPassing clouds.10 mph65%29.74 "Hg15 mi
4:00 PM73 °FPassing clouds.8 mph65%29.76 "Hg15 mi
3:00 PM72 °FPassing clouds.10 mph69%29.78 "Hg15 mi
2:00 PM72 °FPassing clouds.8 mph69%29.80 "Hg15 mi
1:00 PM68 °FPassing clouds.3 mph78%29.83 "Hg15 mi
12:00 PM63 °FPartly sunny.6 mph83%29.85 "Hg15 mi
11:00 AM61 °FLow clouds.3 mph88%29.87 "Hg12 mi
10:00 AM59 °FFog.2 mph94%29.88 "Hg6 mi
9:00 AM59 °FFog.6 mph88%29.88 "Hg6 mi
8:00 AM57 °FLow clouds.8 mph94%29.88 "Hg15 mi
7:00 AM57 °FLow clouds.7 mph94%29.88 "Hg15 mi
6:00 AM57 °FLow clouds.8 mph94%29.88 "Hg15 mi
5:00 AM57 °FPassing clouds.5 mph94%29.89 "Hg15 mi
4:00 AM59 °FPassing clouds.6 mph88%29.89 "Hg15 mi
Weather by CustomWeather, © 2015

See weather overviewHow to use our weather pages